GW5292 Weather Reports


time (UTC)temp
C
wind
direction
speed
KPH
gust
KPH
rain 1hr
cm
rain 24hr
cm
rain mn
cm
humidity
%
barometer
mb
20260901074507 20 182 0.0 0.0 0.00 0.08 0.00 96 1016.7
20260901073022 20 182 0.0 0.0 0.00 0.08 0.00 96 1016.7
20260901071509 20 182 0.0 0.0 0.00 0.08 0.00 96 1016.6
20260901070023 20 182 0.0 0.0 0.00 0.08 0.00 96 1016.6
20260901064511 20 182 0.0 0.0 0.00 0.08 0.00 96 1016.7
20260901063011 20 182 0.0 0.0 0.00 0.08 0.00 96 1016.9
20260901061511 20 182 0.0 0.0 0.00 0.08 0.00 96 1017.0
20260901060011 20 182 0.0 0.0 0.00 0.08 0.00 95 1017.3
20260901054513 20 182 0.0 0.0 0.00 0.08 0.00 96 1017.3
20260901053011 20 182 0.0 0.0 0.00 0.08 0.00 96 1017.4
20260901051513 20 182 0.0 0.0 0.00 0.08 0.00 96 1017.5
20260901050018 20 182 0.0 0.0 0.00 0.08 0.00 95 1017.7
20260901044516 21 182 0.0 0.0 0.00 0.08 0.00 95 1017.5
20260901043018 20 182 0.0 0.0 0.00 0.08 0.00 95 1017.4
20260901041515 21 182 0.0 0.0 0.03 0.08 0.00 95 1017.5
20260901040020 21 182 0.0 0.0 0.03 0.08 0.00 94 1017.8
20260901034522 21 182 0.0 0.0 0.03 0.08 0.08 94 1017.9
20260901033034 21 182 0.0 0.0 0.03 0.08 0.08 94 1017.8
20260901031520 21 182 0.0 0.0 0.00 0.05 0.05 93 1018.0
20260901030015 21 182 0.0 0.0 0.00 0.05 0.05 94 1018.3
20260901024526 21 182 0.0 0.0 0.00 0.05 0.05 94 1018.3
20260901023028 21 182 0.0 0.0 0.00 0.05 0.05 94 1018.3
20260901021522 20 182 0.0 0.0 0.00 0.05 0.05 93 1018.3
20260901020028 20 182 0.0 0.0 0.00 0.05 0.05 93 1018.3
20260901014517 20 182 0.0 0.0 0.00 0.05 0.05 93 1018.2
20260901013023 20 182 0.0 0.0 0.00 0.05 0.05 92 1018.2
20260901011526 21 182 0.0 0.0 0.00 0.05 0.05 92 1018.2
20260901010025 21 182 0.0 0.0 0.00 0.05 0.05 91 1018.1
20260901004532 21 182 0.0 0.0 0.00 0.05 0.05 91 1018.1
20260901003024 21 182 0.0 0.0 0.00 0.05 0.05 90 1018.1
20260901001533 21 182 0.0 0.0 0.00 0.05 0.05 89 1018.0
20260901000027 22 182 0.0 0.0 0.00 0.05 0.05 87 1018.0
20260831234537 22 182 0.0 0.0 0.00 0.05 0.05 86 1017.9
20260831233029 22 182 0.0 0.0 0.00 0.05 0.05 85 1017.9
20260831231522 23 182 0.0 3.2 0.00 0.05 0.05 84 1017.9
20260831230029 23 182 0.0 3.2 0.00 0.05 0.05 83 1018.0
20260831224530 23 182 0.0 0.0 0.00 0.05 0.05 83 1018.2
20260831223028 23 182 0.0 3.2 0.00 0.05 0.05 82 1018.2
20260831221531 23 182 0.0 3.2 0.00 0.05 0.05 81 1018.3
20260831220030 23 182 0.0 0.0 0.00 0.05 0.05 81 1018.5
20260831214540 24 182 0.0 3.2 0.00 0.05 0.05 79 1018.6
20260831213038 24 182 0.0 3.2 0.00 0.05 0.05 81 1018.6
20260831211530 23 182 0.0 1.6 0.00 0.05 0.05 83 1018.7
20260831210004 23 182 0.0 3.2 0.00 0.05 0.05 85 1018.8
20260831204504 23 182 0.0 3.2 0.00 0.05 0.05 84 1019.0
20260831203037 23 203 0.0 3.2 0.00 0.05 0.05 85 1019.2
20260831201518 22 200 1.6 3.2 0.03 0.05 0.05 91 1019.3
20260831200026 22 207 0.0 3.2 0.05 0.05 0.05 90 1019.3
20260831194504 22 207 0.0 1.6 0.05 0.05 0.05 90 1019.4
20260831193011 22 207 0.0 3.2 0.05 0.05 0.05 88 1019.5
20260831191515 22 207 1.6 3.2 0.03 0.03 0.03 86 1020.0
20260831190026 23 192 0.0 3.2 0.00 0.00 0.00 83 1019.8
20260831184530 23 192 1.6 3.2 0.00 0.00 0.00 81 1019.9
20260831183007 24 192 1.6 3.2 0.00 0.00 0.00 78 1020.2
20260831181510 24 192 1.6 3.2 0.00 0.00 0.00 75 1020.2
20260831180020 25 192 0.0 3.2 0.00 0.00 0.00 78 1020.1
20260831174524 24 192 0.0 3.2 0.00 0.00 0.00 77 1020.2
20260831173027 24 192 1.6 3.2 0.00 0.00 0.00 75 1020.2
20260831171509 25 342 0.0 3.2 0.00 0.00 0.00 75 1020.0
20260831170026 24 342 1.6 3.2 0.00 0.00 0.00 74 1020.2
20260831164519 25 351 1.6 4.8 0.00 0.00 0.00 72 1020.3
20260831163028 25 209 0.0 4.8 0.00 0.00 0.00 75 1020.2
20260831161532 24 12 0.0 4.8 0.00 0.00 0.00 74 1020.4
20260831160018 24 18 0.0 4.8 0.00 0.00 0.00 74 1020.3
20260831154543 24 277 1.6 6.4 0.00 0.00 0.00 75 1020.3
20260831153046 23 173 1.6 6.4 0.00 0.00 0.00 75 1020.6
20260831151527 23 13 1.6 4.8 0.00 0.00 0.00 79 1020.6
20260831150008 23 341 3.2 4.8 0.00 0.00 0.00 78 1020.6
20260831144515 22 9 0.0 3.2 0.00 0.00 0.00 81 1020.6
20260831143023 22 9 1.6 3.2 0.00 0.00 0.00 80 1020.7
20260831141529 22 9 1.6 3.2 0.00 0.00 0.00 80 1020.6
20260831140013 22 345 0.0 3.2 0.00 0.00 0.00 80 1020.8
20260831134513 22 352 0.0 3.2 0.00 0.00 0.00 81 1020.7
20260831133019 22 342 0.0 3.2 0.00 0.00 0.00 82 1020.8
20260831131528 22 23 0.0 3.2 0.00 0.00 0.00 1020.5
20260831130040 22 352 0.0 3.2 0.00 0.00 0.00 83 1020.7
20260831124512 21 59 0.0 3.2 0.00 0.00 0.00 85 1020.6
20260831123030 21 325 1.6 4.8 0.00 0.00 0.00 88 1020.5
20260831121527 21 73 0.0 1.6 0.00 0.00 0.00 89 1020.5
20260831120100 20 350 0.0 0.0 0.00 0.00 0.00 91 1020.5
20260831114534 20 350 0.0 0.0 0.00 0.00 0.00 93 1020.4
20260831113023 20 350 0.0 0.0 0.00 0.00 0.00 93 1020.2
20260831111525 19 350 0.0 0.0 0.00 0.00 0.00 93 1020.2
20260831110036 19 350 0.0 0.0 0.00 0.00 0.00 92 1019.9
20260831104537 19 350 0.0 0.0 0.00 0.00 0.00 92 1019.8
20260831103037 20 350 0.0 0.0 0.00 0.00 0.00 91 1019.7
20260831101523 20 350 0.0 0.0 0.00 0.00 0.00 92 1019.5
20260831100029 19 350 0.0 0.0 0.00 0.00 0.00 92 1019.5
20260831094531 19 350 0.0 0.0 0.00 0.00 0.00 92 1019.5
20260831093034 19 350 0.0 0.0 0.00 0.00 0.00 92 1019.3
20260831091533 19 333 0.0 0.0 0.00 0.00 0.00 92 1019.3
20260831090021 19 332 0.0 0.0 0.00 0.00 0.00 91 1019.3
20260831084530 20 9 0.0 0.0 0.00 0.00 0.00 91 1019.1
20260831083032 20 9 0.0 0.0 0.00 0.00 0.00 91 1019.2
20260831081543 20 9 0.0 0.0 0.00 0.00 0.00 91 1019.1
20260831080017 20 9 0.0 0.0 0.00 0.00 0.00 92 1019.2